User: anonymous   Login
Location: Unspecified
(0.0000°N, 0.0000°E)
Time: 10:41:32
(UTC+02:00)
Language:

BREEZE-M DEB (TANK) - Orbit

View from above orbital plane
View from above orbital plane
View from above satellite
View from above satellite

Ground track
Ground track

The orbit data is extracted from the following two-line orbital elements,

1 33374U 08044B   17113.93968683 +.00002884 +00000-0 +79647-3 0  9999
2 33374 049.4739 321.8107 5445944 051.9371 345.8601 04.86958767151386
Epoch (UTC): 23 April 2017 22:33:08
Eccentricity: 0.5445944
inclination: 49.4739°
perigee height: 318 km
apogee height: 16332 km
right ascension of ascending node: 321.8107°
argument of perigee: 51.9371°
revolutions per day: 4.86958767
mean anomaly at epoch: 345.8601°
orbit number at epoch: 15138

The dashed part of the orbit path shows where the satellite is in the earth's shadow,  

DLR